Location: Hawk's Hollow Observatory
(42.9278°N, 85.8301°W)
Time: 16:53:44
(UTC-05:00)

N. Korean satellite - Visible Passes

Search period start: 16 November 2018 00:00
Search period end: 26 November 2018 00:00
Orbit: 457 x 511 km, 97.2° (Epoch: 15 November)

Date Brightness Start Highest point End Pass type
(mag) Time Alt. Az. Time Alt. Az. Time Alt. Az.
16 Nov 9.3 06:22:52 10° NE 06:25:36 22° E 06:28:19 10° SSE visible
16 Nov 7.5 18:32:00 10° S 18:35:32 50° W 18:39:02 10° NNW visible
17 Nov 10.2 05:59:55 10° ENE 06:00:55 11° E 06:01:53 10° ESE visible
17 Nov 6.5 18:07:25 10° SSE 18:11:01 75° ENE 18:14:36 10° N visible
18 Nov 6.5 07:06:42 10° NNE 07:10:09 88° E 07:13:35 10° SSW visible
18 Nov 7.2 17:43:17 10° SE 17:46:36 35° ENE 17:49:52 10° N visible
18 Nov 9.9 19:18:08 10° SW 19:20:10 14° W 19:22:11 10° WNW visible
19 Nov 8.1 06:42:21 10° NNE 06:45:37 39° E 06:48:51 10° S visible
19 Nov 8.8 18:52:24 10° SSW 18:55:31 27° W 18:58:37 10° NW visible
20 Nov 9.5 06:18:26 10° NE 06:20:59 19° E 06:23:32 10° SE visible
20 Nov 7.2 18:27:25 10° S 18:30:57 58° W 18:34:27 10° NNW visible
21 Nov 6.5 18:02:54 10° SSE 18:06:27 65° ENE 18:09:57 10° N visible
22 Nov 6.7 07:02:05 10° NNE 07:05:31 77° E 07:08:58 10° S visible
22 Nov 9.8 19:13:17 10° SW 19:15:33 16° W 19:17:47 10° NW visible
23 Nov 8.4 06:37:47 10° NNE 06:40:58 34° E 06:44:09 10° SSE visible
23 Nov 8.6 18:47:42 10° SSW 18:50:54 31° W 18:54:04 10° NNW visible
24 Nov 9.7 06:13:57 10° NE 06:16:19 17° E 06:18:41 10° SE visible
24 Nov 6.9 18:22:47 10° S 18:26:19 66° W 18:29:49 10° NNW visible
25 Nov 6.5 17:58:21 10° SSE 18:01:50 56° ENE 18:05:16 10° N visible
